Location: Wallasey
(53.4265°N, 3.0662°W)
Time: 09:22:44
(UTC+01:00)

NOAA 18 - Pass Details

Date: 25 September 2019
Orbit: 840 x 861 km, 99.1° (Epoch: 19 October)

Event Time Altitude Azimuth Distance (km) Brightness Sun altitude
Exits shadow 20:38:03 16° 139° (SE) 2,070 6.7 -14.6°
Maximum altitude 20:42:18 56° 66° (ENE) 1,023 5.4 -15.2°
Drops below altitude 10° 20:47:45 10° 350° (N) 2,514 8.1 -15.9°
Sets 20:50:10 0° 346° (NNW) 3,454 8.9 -16.3°
